Location: Unspecified
(35.7250°N, 0.0000°E)
Time: 06:35:05
(UTC+00:00)

Explorer 7 - Pass Details

Date: 18 June 2019
Orbit: 485 x 680 km, 50.3° (Epoch: 15 July)

Event Time Altitude Azimuth Distance (km) Brightness Sun altitude
Rises 13:21:38 0° 307° (NW) 2,943 10.6 68.7°
Reaches altitude 10° 13:25:02 10° 333° (NNW) 2,068 9.9 68.1°
Maximum altitude 13:27:34 14° 5° (N) 1,828 9.5 67.6°
Drops below altitude 10° 13:30:07 10° 37° (NE) 2,104 9.7 67.1°
Sets 13:33:39 0° 62° (ENE) 3,031 10.4 66.5°
